STARLINK-5484 (55628 NORAD) Tracking and Keplerian Element Data

This shows tracking and keplerian element data for the satellite.

Feedback or suggestion? Click here.




ElementValue
Catalog55628
NameSTARLINK-5484
Epoch Orbit130
Epoch Day62.91667824
Epoch Year2023
RAAN110.2077
Inclination70
Eccentricity0.0003468
Argument of Perigee270.3598
Mean Anonmoly318.9939
Mean Motion15.74820455
Decay Rate-0.00972496
L11 55628U 23021A 23062.91667824 -.00972496 00000+0 -73630-2 0 9999
L22 55628 70.0000 110.2077 0003468 270.3598 318.9939 15.74820455 1305



Live tracking and technical data element details for STARLINK-5484 (NORAD 55628). STARLINK-5484 can be tracked NOW for your location showing map with azimuth and elevation plus other details from your city location.







IsCatalogInMostPopularTable: catalog: 55628, numindb: 3
Update: records affected: 1



GetName: 55628 STARLINK-5484

Hit Count: updated at: Wed, 22 Mar 2023 17:01:23 GMT